Leader Arpt, Saskatchewan

2:04 PM CST on December 09, 2016 (GMT -0600)
Leader

Weather History for CWJX - September, 2014

Change the Weather History Date:

Sunday, September 21, 2014

  Actual Average Record
Temperature  
Mean Temperature 58 °F -  
Max Temperature 79 °F - - ()
Min Temperature 38 °F - - ()
Degree Days  
Heating Degree Days 6    
Growing Degree Days 8 (Base 50)    
Moisture  
Dew Point 38 °F    
Average Humidity 54    
Maximum Humidity 88    
Minimum Humidity 17    
Precipitation  
Precipitation 0.00 in - - ()
Sea Level Pressure  
Sea Level Pressure 30.15 in    
Wind  
Wind Speed 6 mph ()    
Max Wind Speed 14 mph    
Max Gust Speed 18 mph    
T = Trace of Precipitation, MM = Missing Value Source: Averaged Metar Reports

Daily Weather History Graph

Daily Weather History Graph

Search for Another Location

Airport or City:

Trip Planner

Search our weather history database for the weather conditions in past years. The results will help you decide how hot, cold, wet, or windy it might be!

Date:

Astronomy

Sep. 21, 2014 Rise Set
Actual Time 7:02 AM CST 7:18 PM CST
Civil Twilight 6:29 AM CST 7:51 PM CST
Nautical Twilight 5:50 AM CST 8:29 PM CST
Astronomical Twilight 5:10 AM CST 9:10 PM CST
Moon 4:27 AM CST (9/21) 6:04 PM CST (9/21)
Length of Visible Light 13h 21m
Length of Day
12h 15m
Waning Crescent, 6% of the Moon is Illuminated
Sep 21
Waning Crescent
Sep 24
New
Oct 1
First Quarter
Oct 8
Full
Oct 15
Last Quarter

Hourly Weather History & Observations

Time (CST) Temp. Windchill Dew Point Humidity Pressure Visibility Wind Dir Wind Speed Gust Speed Precip Events Conditions
12:00 AM 43 °F - 36 °F 67% 30.23 in - SSW 3.5 mph - -  
12:00 AM 43.2 °F 41.5 °F 35.8 °F 75% 30.23 in - SSW 3.5 mph - N/A   Unknown
1:00 AM 43.2 °F 37.9 °F 34.7 °F 72% 30.23 in - South 9.2 mph - N/A   Unknown
2:00 AM 44.2 °F 39.7 °F 37.2 °F 76% 30.22 in - South 8.1 mph - N/A   Unknown
3:00 AM 43.7 °F 41.1 °F 34.7 °F 71% 30.22 in - South 4.6 mph - N/A   Unknown
4:00 AM 42.1 °F 38.4 °F 35.1 °F 76% 30.22 in - South 5.8 mph - N/A   Unknown
5:00 AM 39.9 °F - 35.2 °F 83% 30.22 in - West 2.3 mph - N/A   Unknown
6:00 AM 40 °F - 35 °F 77% 30.23 in - South 6.9 mph - -  
6:00 AM 39.6 °F 34.7 °F 35.2 °F 85% 30.23 in - South 6.9 mph - N/A   Unknown
7:00 AM 39.6 °F 34.7 °F 35.6 °F 86% 30.23 in - SSW 6.9 mph - N/A   Unknown
8:00 AM 41.9 °F 38.2 °F 38.7 °F 88% 30.24 in - SSE 5.8 mph - N/A   Unknown
9:00 AM 52.3 °F - 40.8 °F 65% 30.23 in - SE 3.5 mph - N/A   Unknown
10:00 AM 60.6 °F - 40.6 °F 48% 30.22 in - SSW 4.6 mph - N/A   Unknown
11:00 AM 67.3 °F - 42.1 °F 40% 30.20 in - SSW 3.5 mph - N/A   Unknown
12:00 PM 72 °F - 37 °F 18% 30.18 in - South 6.9 mph - -  
12:00 PM 72.5 °F - 37.4 °F 28% 30.18 in - South 6.9 mph - N/A   Unknown
1:00 PM 75.2 °F - 34.5 °F 23% 30.15 in - SSW 10.4 mph 17.3 mph N/A   Unknown
2:00 PM 76.6 °F - 36.1 °F 23% 30.12 in - South 10.4 mph - N/A   Unknown
3:00 PM 77.5 °F - 35.8 °F 22% 30.10 in - South 11.5 mph 18.4 mph N/A   Unknown
4:00 PM 78.4 °F - 36.9 °F 22% 30.07 in - South 12.7 mph - N/A   Unknown
6:00 PM 76 °F - 40 °F 17% 30.04 in - South 13.8 mph - -  
6:00 PM 76.3 °F - 39.9 °F 27% 30.04 in - South 13.8 mph - N/A   Unknown
7:00 PM 68.2 °F - 40.5 °F 36% 30.03 in - SSE 8.1 mph - N/A   Unknown
8:00 PM 61.3 °F - 42.6 °F 50% 30.02 in - SSE 10.4 mph - N/A   Unknown
9:00 PM 55.6 °F - 41.7 °F 60% 30.01 in - SSE 11.5 mph - N/A   Unknown
10:00 PM 53.8 °F - 41.7 °F 64% 29.99 in - SSE 10.4 mph - N/A   Unknown
11:00 PM 54.0 °F - 42.3 °F 65% 29.97 in - South 10.4 mph - N/A   Unknown